METEOR 2-11 DEB, 40706

Orbit data source: Space-Track

METEOR 2-11 DEB, 40706 is space debris in LEO originally from a launch on Thu, 05 Jul 1984 UTC launched from the Plesetsk Missile And Space Complex (PKMTR). Debris objects in space refer to the collection of defunct objects orbiting the Earth. Examples of debris include non-operational satellites, rocket bodies, and fragments generated from explosions, collisions, or faulty payload assembly.

Loading next visibility...
Identifier
40706, 1984-072H
Orbit
LEO
Country
Flag of CISCIS
Related business
Manufacturer
Unknown
Mission
Spacecraft
Bus & Motor
Unknown
Mass
Unknown
Launch date (UTC)
1984-07-05 (41 years ago)
Launch vehicle
Unknown
Launch site
Plesetsk Missile And Space Complex (PKMTR)
Object type
Payload
Rocket body
Debris
Shape & HBR
Unknown
Radar Cross Section
Small (<0.1 m²)

Expand to show TLE details & history
Last TLE update: 4 days ago

TLE from 4 days ago
0 METEOR 2-11 DEB
1 40706U 84072H   25257.18244351  .00001904  00000-0  13605-2 0  9998
2 40706  82.5181 233.3708 0019511  50.5371 309.7519 13.96698834550650
Epoch: 2025-09-14T04:22Z
TLE epoch observation values (Epoch: 2025-09-14T04:22:43.119Z)
Latitude
0.00005°
Longitude
174.28602°
Altitude
899.095 km
Speed
7.407 km/s
True Right ascension
15h 33m 28s
True Declination
0° 00' 00"
Sunlit
Object was in daylight at epoch
Visualization orbit readout
Latitude
Unknown
Longitude
Unknown
Altitude
Unknown
Speed
Unknown
Apparent Right ascension
Unknown
Apparent Declination
Unknown
Sunlit
N/A
Visualization observer readout
Local Sidereal Time
03:27:25
Azimuth
Unknown
Elevation
Unknown
Doppler factor
Unknown
Orbital elements
Apogee altitude
916.59 km
Perigee altitude
888.18 km
Semi-major axis
7,280.522 km
Eccentricity
0.00195
Inclination
82.5181°
RAAN
233.3708°
Arg. of periapsis
50.5371°
True anomaly
309.57974°
Mean anomaly
309.7519°
Eccentric anomaly
309.66585°
Mean motion
3.49381 °/min
Orbital period
103.04 mins
BSTAR
0.0013605
Loading maneuver chart data...
Computing Atmospheric mass density...
Loading historical data...
Loading historical data...
Loading historical data...
Loading historical data...
Loading historical data...
Loading historical data...
Loading historical data...

Documentation

Showing up to 5 results
|